Regional Weather Roundup
Issued by NWS Bismarck, ND

Home | Current Version | Previous Version | Text Only | Print | Product List | Glossary On
Versions: 1 2 3 4 5 6 7 8 9 10 11 12 13 14 15 16 17 18 19 20 21 22 23 24 25 26 27 28 29 30 31 32 33 34 35 36 37 38 39 40 41 42 43 44 45 46 47 48 49 50
000
ASUS43 KBIS 211310
RWRBIS

NWR BROADCAST TEXT
NATIONAL WEATHER SERVICE BISMARCK ND
800 AM CDT FRI JUL 21 2017

NOTE: "FAIR" INDICATES FEW OR NO CLOUDS BELOW 12,000 FEET WITH NO
SIGNIFICANT WEATHER AND/OR OBSTRUCTIONS TO VISIBILITY.


CITY           SKY/WX    TMP DP  RH WIND       PRES   REMARKS
WILLISTON      PTSUNNY   68  59  73 NE7       29.83R
MINOT          SUNNY     67  61  81 CALM      29.81S
MINOT AFB      MOSUNNY   64  61  92 S3        29.80S
BISMARCK       CLOUDY    70  64  81 N9        29.83R
DICKINSON      CLOUDY    68  63  84 SW9       29.81F
GARRISON         N/A     66  62  87 CALM      29.81S
HETTINGER ARPT CLOUDY    69  63  81 SW6       29.86S
JAMESTOWN      MOSUNNY   71  66  84 SE5       29.82R
HAZEN          FAIR      64  61  88 CALM      29.84F
LINTON         FAIR     N/A N/A N/A CALM      29.82R
MANDAN         FAIR      68  64  88 N6G18     29.83R
STANLEY        FAIR      63  63 100 NW3       29.88R
TIOGA          FAIR      63  63 100 E10       29.86R
WATFORD CITY   FAIR      64  61  88 NE3       29.83R
$$

CITY           SKY/WX    TMP DP  RH WIND       PRES   REMARKS
GRAND FORKS    PTSUNNY   73  68  84 E7        29.79S
GRAND FORKS AF MOSUNNY   70  68  93 E3        29.80R
DEVILS LAKE    CLOUDY    70  65  84 E8        29.82R
FARGO          CLOUDY    75  70  84 SE9       29.81R
CAVALIER       FAIR      64  63  94 CALM      29.81S
GRAFTON        FAIR      70  66  88 E7        29.83R
GWINNER        SUNNY     72  70  94 CALM      29.82R
LANGDON        FAIR      66  66 100 E7        29.84S
ROLLA            N/A     63  63 100 N6        29.85F
$$

CITY           SKY/WX    TMP DP  RH WIND       PRES   REMARKS
ABERDEEN       CLOUDY    74  71  91 SE9       29.79R
MOBRIDGE       MOSUNNY   73  66  78 SE5       29.76R
BUFFALO          N/A     69  64  84 S13       29.81S
RAPID CITY     MOSUNNY   67  64  90 SE7       29.89F
GLASGOW        CLOUDY    66  55  67 S5        29.85R
SIDNEY         SUNNY     67  58  72 N8        29.84R
WOLF POINT     CLOUDY    67  58  72 W3        29.83R
GLENDIVE       SUNNY     69  59  70 NE9       29.82S
MILES CITY     CLOUDY    71  51  49 W13       29.85R
BAKER          MOSUNNY   68  60  75 S5        29.86R
$$

CITY           SKY/WX    TMP DP  RH WIND       PRES   REMARKS
BILLINGS       SUNNY     69  32  25 NE3       30.01R
GREAT FALLS    CLEAR     57  27  31 SW3       30.03S
REGINA         MOSUNNY   66  59  77 E9        29.81S
ESTEVAN        MOSUNNY   64  63  94 SE6       29.81R THUNDER
$$





USA.gov is the U.S. government's official web portal to all federal, state and local government web resources and services.